Weather History for Culiacan, Mexico

Change the Weather History Date:

Thursday, November 8, 2012

  Actual Average Record
Temperature  
Mean Temperature 80 °F -  
Max Temperature 93 °F 86 °F 100 °F (2001)
Min Temperature 68 °F 61 °F 55 °F (2000)
Cooling Degree Days 16    
Growing Degree Days 30 (Base 50)    
Moisture  
Dew Point 69 °F    
Average Humidity 63    
Maximum Humidity 94    
Minimum Humidity 33    
Precipitation  
Precipitation 0.00 in - - ()
Sea Level Pressure  
Sea Level Pressure 29.92 in    
Wind  
Wind Speed 3 mph ()    
Max Wind Speed 14 mph    
Max Gust Speed -    
Visibility 9.7 miles    
Events      
Averages and records for this station are not official NWS values.
T = Trace of Precipitation, MM = Missing Value Source: Averaged Metar Reports

Daily Weather History Graph

Daily Weather History Graph

Search for Another Location

Airport:

Trip Planner

Search our weather history database for the weather conditions in past years. The results will help you decide how hot, cold, wet, or windy it might be!

Date:

Astronomy

Nov. 08, 2012 Rise Set
Actual Time 6:21 AM MST 5:25 PM MST
Civil Twilight 5:57 AM MST 5:49 PM MST
Nautical Twilight 5:30 AM MST 6:16 PM MST
Astronomical Twilight 5:03 AM MST 6:43 PM MST
Moon 12:55 AM MST (11/8) 1:36 PM MST (11/8)
Length of Visible Light 11h 51m
Length of Day
11h 03m
Waning Crescent, 32% of the Moon is Illuminated
Nov 8
Waning Crescent
Nov 13
New
Nov 20
First Quarter
Nov 28
Full
Dec 6
Last Quarter

Hourly Weather History & Observations

Time (MST) Temp. Heat Index Dew Point Humidity Pressure Visibility Wind Dir Wind Speed Gust Speed Precip Events Conditions
1:40 AM 70 °F - 68 °F 91% 29.97 in 6 mi Calm Calm - -  
1:42 AM 71.6 °F - 69.8 °F 94% 29.93 in 10.0 mi NNE 5.8 mph - N/A   Scattered Clouds
2:42 AM 71.6 °F - 69.8 °F 94% 29.91 in 10.0 mi NNE 5.8 mph - N/A   Scattered Clouds
6:01 AM 73.4 °F - 66.2 °F 78% 29.92 in 10.0 mi Calm Calm - N/A   Clear
6:42 AM 73.4 °F - 66.2 °F 78% 29.93 in 10.0 mi Calm Calm - N/A   Clear
7:40 AM 73 °F - 65 °F 70% 30.01 in 10 mi East 2.2 mph - -   Haze
7:44 AM 75.2 °F - 64.4 °F 69% 30.00 in 10.0 mi NNE 5.8 mph - N/A   Clear
8:40 AM 80.6 °F 82.7 °F 66.2 °F 61% 29.96 in 10.0 mi Calm Calm - N/A   Clear
9:44 AM 86.0 °F 87.3 °F 64.4 °F 48% 29.97 in 10.0 mi East 5.8 mph - N/A   Clear
10:40 AM 86 °F - 71 °F 52% 29.99 in 10 mi SW 2.2 mph - -   Haze
10:42 AM 89.6 °F 92.2 °F 66.2 °F 46% 29.95 in 10.0 mi SSE 5.8 mph - N/A   Clear
11:40 AM 93.2 °F 97.7 °F 68.0 °F 44% 29.92 in 10.0 mi SW 4.6 mph - N/A   Clear
12:45 PM 95.0 °F 101.3 °F 69.8 °F 44% 29.88 in 10.0 mi Calm Calm - N/A   Clear
1:40 PM 93 °F - 67 °F 33% 29.91 in 10 mi SW 4.5 mph - -   Haze
1:49 PM 96.8 °F 103.1 °F 69.8 °F 41% 29.88 in 10.0 mi West 9.2 mph - N/A   Clear
2:42 PM 96.8 °F 103.1 °F 69.8 °F 41% 29.84 in 10.0 mi SW 6.9 mph - N/A   Clear
3:44 PM 96.8 °F 103.1 °F 69.8 °F 41% 29.83 in 10.0 mi SSW 5.8 mph - N/A   Clear
4:40 PM 88 °F - 68 °F 42% 29.89 in 10 mi SW 4.5 mph - -   Haze
4:40 PM 89.6 °F 96.2 °F 71.6 °F 55% 29.81 in 10.0 mi West 13.8 mph - N/A   Clear
5:40 PM 86.0 °F 91.8 °F 71.6 °F 62% 29.85 in 10.0 mi West 11.5 mph - N/A   Clear
6:40 PM 80.6 °F 83.9 °F 69.8 °F 70% 29.87 in 10.0 mi Calm Calm - N/A   Clear
7:40 PM 77 °F - 72 °F 79% 29.95 in 6 mi SW 2.2 mph - -  
7:42 PM 78.8 °F - 71.6 °F 78% 29.94 in 10.0 mi Calm Calm - N/A   Clear
8:40 PM 78.8 °F - 71.6 °F 78% 29.91 in 10.0 mi Calm Calm - N/A   Clear
9:41 PM 78.8 °F - 71.6 °F 78% 29.92 in 10.0 mi Calm Calm - N/A   Clear